Telfer, Australia

1:53 PM AWST on July 21, 2017 (GMT +0800)
Telfer

Weather History for YTEF - November, 2012

Change the Weather History Date:

Sunday, November 4, 2012

  Actual Average Record
Temperature  
Mean Temperature 92 °F -  
Max Temperature 105 °F - - ()
Min Temperature 79 °F - - ()
Cooling Degree Days 27    
Growing Degree Days 42 (Base 50)    
Moisture  
Dew Point 45 °F    
Average Humidity 17    
Maximum Humidity 30    
Minimum Humidity 7    
Precipitation  
Precipitation 0.00 in - - ()
Sea Level Pressure  
Sea Level Pressure 29.72 in    
Wind  
Wind Speed 8 mph ()    
Max Wind Speed 20 mph    
Max Gust Speed -    
T = Trace of Precipitation, MM = Missing Value Source: Averaged Metar Reports

Daily Weather History Graph

Daily Weather History Graph

Search for Another Location

Airport or City:

Trip Planner

Search our weather history database for the weather conditions in past years. The results will help you decide how hot, cold, wet, or windy it might be!

Date:

Astronomy

Nov. 04, 2012 Rise Set
Actual Time 5:05 AM AWST 6:03 PM AWST
Civil Twilight 4:42 AM AWST 6:27 PM AWST
Nautical Twilight 4:14 AM AWST 6:54 PM AWST
Astronomical Twilight 3:46 AM AWST 7:23 PM AWST
Moon 10:29 PM AWST (11/4) 8:59 AM AWST (11/4)
Length of Visible Light 13h 44m
Length of Day
12h 58m
Waning Gibbous, 76% of the Moon is Illuminated
Nov 4
Waning Gibbous
Nov 7
Last Quarter
Nov 14
New
Nov 20
First Quarter
Nov 28
Full

Hourly Weather History & Observations

Time (AWST) Temp. Dew Point Humidity Pressure Visibility Wind Dir Wind Speed Gust Speed Precip Events Conditions
12:00 AM 87 °F 44 °F 13% 29.68 in - West 2.3 mph - -  
12:00 AM 87.8 °F 44.6 °F 22% 29.74 in - West 2.3 mph - N/A   Unknown
1:00 AM 89.6 °F 42.8 °F 20% 29.71 in - SSW 10.4 mph - N/A   Unknown
2:00 AM 87 °F 43 °F 13% 29.67 in - SSE 10.4 mph - -  
2:00 AM 86.0 °F 42.8 °F 22% 29.71 in - SSE 10.4 mph - N/A   Unknown
3:00 AM 83 °F 43 °F 15% 29.70 in - SE 8.1 mph - -  
3:00 AM 82.4 °F 42.8 °F 25% 29.74 in - SE 8.1 mph - N/A   Unknown
4:00 AM 84.2 °F 42.8 °F 23% 29.77 in - South 6.9 mph - N/A   Unknown
5:00 AM 80 °F 43 °F 17% 29.74 in - SE 6.9 mph - -  
5:00 AM 80.6 °F 42.8 °F 26% 29.80 in - SE 6.9 mph - N/A   Unknown
6:00 AM 82 °F 43 °F 16% 29.76 in - ESE 6.9 mph - -  
6:00 AM 82.4 °F 42.8 °F 25% 29.83 in - ESE 6.9 mph - N/A   Unknown
7:00 AM 84.2 °F 50.0 °F 30% 29.86 in - South 6.9 mph - N/A   Unknown
8:00 AM 87 °F 44 °F 14% 29.76 in - SE 10.4 mph - -  
8:00 AM 86.0 °F 44.6 °F 23% 29.83 in - SE 10.4 mph - N/A   Unknown
9:00 AM 90 °F 40 °F 10% 29.77 in - ENE 5.8 mph - -  
9:00 AM 89.6 °F 41.0 °F 18% 29.83 in - ENE 5.8 mph - N/A   Unknown
10:00 AM 93.2 °F 41.0 °F 16% 29.80 in - NNW 3.5 mph - N/A   Unknown
11:00 AM 97 °F 42 °F 8% 29.71 in - WSW 8.1 mph - -  
11:00 AM 96.8 °F 41.0 °F 15% 29.77 in - WSW 8.1 mph - N/A   Unknown
12:00 PM 102 °F 44 °F 7% 29.70 in - West 11.5 mph - -  
12:00 PM 102.2 °F 44.6 °F 14% 29.74 in - West 11.5 mph - N/A   Unknown
1:00 PM 102.2 °F 46.4 °F 15% 29.74 in - WNW 16.1 mph - N/A   Unknown
2:00 PM 100 °F 46 °F 9% 29.65 in - NW 16.1 mph - -  
2:00 PM 100.4 °F 46.4 °F 16% 29.71 in - NW 16.1 mph - N/A   Unknown
3:00 PM 102 °F 46 °F 8% 29.63 in - WNW 18.4 mph - -  
3:00 PM 102.2 °F 46.4 °F 15% 29.68 in - WNW 18.4 mph - N/A   Unknown
4:00 PM 102.2 °F 46.4 °F 15% 29.65 in - WNW 19.6 mph - N/A   Unknown
5:00 PM 100 °F 47 °F 9% 29.61 in - West 16.1 mph - -  
5:00 PM 100.4 °F 48.2 °F 17% 29.68 in - West 16.1 mph - N/A   Unknown
6:00 PM 98 °F 47 °F 10% 29.63 in - WNW 15.0 mph - -  
6:00 PM 98.6 °F 46.4 °F 17% 29.68 in - WNW 15.0 mph - N/A   Unknown
7:00 PM 95.0 °F 48.2 °F 20% 29.71 in - West 12.7 mph - N/A   Unknown
8:00 PM 93 °F 48 °F 13% 29.66 in - West 11.5 mph - -  
8:00 PM 93.2 °F 48.2 °F 21% 29.71 in - West 11.5 mph - N/A   Unknown
9:00 PM 91 °F 48 °F 14% 29.68 in - WNW 8.1 mph - -  
9:00 PM 91.4 °F 48.2 °F 23% 29.74 in - WNW 8.1 mph - N/A   Unknown
10:00 PM 89.6 °F 48.2 °F 24% 29.74 in - WNW 9.2 mph - N/A   Unknown
11:00 PM 89 °F 48 °F 15% 29.67 in - WNW 11.5 mph - -  
11:00 PM 89.6 °F 48.2 °F 24% 29.74 in - WNW 11.5 mph - N/A   Unknown